{"data":{"norad_id":57094,"intl_designator":"2023-088AY","name":"STARLINK-6235","alt_names":[],"object_type":"PAYLOAD","status":"ACTIVE","operator":null,"country":"US","launch_date":"2023-06-22","launch_site_code":"AFWTR","launch_vehicle":null,"mission":null,"orbit_class":"UNKNOWN","rcs_meters":null,"size_class":null,"mass_kg":null,"dimensions":null,"purposes":["comms"],"wikipedia_slug":null,"has_3d_model":false,"image_url":null,"decayed_at":null,"tle_current":{"epoch":"2026-05-25T00:23:36.610944Z","epoch_age_seconds":73966,"freshness":"FRESH","line1":"1 57094U 23088AY  26145.01639596 -.00001833  00000+0 -57133-4 0  9992","line2":"2 57094  43.0037  25.0522 0001186 276.5075  83.5642 15.27566171162174","mean_motion":15.27566171,"eccentricity":0.0001186,"inclination_deg":43.0037,"raan_deg":25.0522,"arg_perigee_deg":276.5075,"mean_anomaly_deg":83.5642,"bstar":-5.7133e-5,"rev_number":16217,"period_min":94.267602107038,"perigee_km":482.27676377087,"apogee_km":483.90424693514,"semimajor_km":6861.227505353,"source":"CELESTRAK","updated_at":"2026-05-25T13:38:18.218699Z"}}}